FREGAT DEB, 45872

Orbit data source: Space-Track

FREGAT DEB, 45872 is space debris in LEO originally from a launch on Mon, 18 Jul 2011 UTC launched from the Tyuratam Missile And Space Complex (TTMTR). Debris objects in space refer to the collection of defunct objects orbiting the Earth. Examples of debris include non-operational satellites, rocket bodies, and fragments generated from explosions, collisions, or faulty payload assembly.

Loading next visibility...
Identifier
45872, 2011-037CW
Orbit
LEO
Country
Flag of CISCIS
Related business
Manufacturer
Lavochkin
Mission
Spacecraft
Bus & Motor
Unknown
Mass
Unknown
Launch date (UTC)
2011-07-18 (14 years ago)
Launch vehicle
Unknown
Launch site
Tyuratam Missile And Space Complex (TTMTR)
Object type
Payload
Rocket body
Debris
Shape & HBR
Unknown
Radar Cross Section
Small (<0.1 m²)

Expand to show TLE details & history
Last TLE update: 22 hours ago

TLE from 22 hours ago
0 FREGAT DEB
1 45872U 11037CW  25259.38513001  .00010990  00000-0  42156-1 0  9990
2 45872  51.3739 264.3040 1678153 250.7724  90.4554 10.69722101203240
Epoch: 2025-09-16T09:14Z
TLE epoch observation values (Epoch: 2025-09-16T09:14:35.232Z)
Latitude
-0.00001°
Longitude
130.081°
Altitude
2,574.761 km
Speed
6.577 km/s
True Right ascension
17h 37m 12s
True Declination
0° 00' 00"
Sunlit
Object was in daylight at epoch
Visualization orbit readout
Latitude
Unknown
Longitude
Unknown
Altitude
Unknown
Speed
Unknown
Apparent Right ascension
Unknown
Apparent Declination
Unknown
Sunlit
N/A
Visualization observer readout
Local Sidereal Time
23:31:42
Azimuth
Unknown
Elevation
Unknown
Doppler factor
Unknown
Orbital elements
Apogee altitude
3,783.209 km
Perigee altitude
862.834 km
Semi-major axis
8,701.159 km
Eccentricity
0.16782
Inclination
51.3739°
RAAN
264.304°
Arg. of periapsis
250.7724°
True anomaly
109.30739°
Mean anomaly
90.4554°
Eccentric anomaly
99.92657°
Mean motion
2.6741 °/min
Orbital period
134.62 mins
BSTAR
0.042156
Loading maneuver chart data...
Computing Atmospheric mass density...
Loading historical data...
Loading historical data...
Loading historical data...
Loading historical data...
Loading historical data...
Loading historical data...
Loading historical data...

Documentation

Showing up to 5 results
|